Time,TemperatureF,DewpointF,PressureIn,WindDirection,WindDirectionDegrees,WindSpeedMPH,WindSpeedGustMPH,Humidity,HourlyPrecipIn,Conditions,Clouds,dailyrainin,SoftwareType,DateUTC
2013-04-12 00:00:00,61.6,26.9,27.22,NNW,338,0.0,0.0,27,0.00,,,0.00,WUHU216HW,2013-04-12 07:00:00,
2013-04-12 00:05:00,61.6,26.9,27.22,NNW,338,0.0,0.0,27,0.00,,,0.00,WUHU216HW,2013-04-12 07:05:00,
2013-04-12 00:10:00,61.6,26.9,27.22,NNW,338,0.0,0.0,27,0.00,,,0.00,WUHU216HW,2013-04-12 07:10:00,
2013-04-12 00:30:00,60.8,27.3,27.22,NE,45,0.0,0.0,28,0.00,,,0.00,WUHU216HW,2013-04-12 07:30:00,
2013-04-12 00:35:00,60.8,27.3,27.22,SE,135,0.0,0.0,28,0.00,,,0.00,WUHU216HW,2013-04-12 07:35:00,
2013-04-12 00:40:00,60.8,27.3,27.22,SE,135,0.0,0.0,28,0.00,,,0.00,WUHU216HW,2013-04-12 07:40:00,
2013-04-12 01:00:00,60.3,27.8,27.21,NE,45,0.0,0.0,29,0.00,,,0.00,WUHU216HW,2013-04-12 08:00:00,
2013-04-12 01:05:00,60.3,27.8,27.22,NE,45,0.0,0.0,29,0.00,,,0.00,WUHU216HW,2013-04-12 08:05:00,
2013-04-12 01:10:00,60.3,27.8,27.22,NE,45,0.0,0.0,29,0.00,,,0.00,WUHU216HW,2013-04-12 08:10:00,
2013-04-12 01:30:00,60.1,27.6,27.21,NE,45,0.0,0.0,29,0.00,,,0.00,WUHU216HW,2013-04-12 08:30:00,
2013-04-12 01:35:00,60.1,27.6,27.21,NE,45,0.0,0.0,29,0.00,,,0.00,WUHU216HW,2013-04-12 08:35:00,
2013-04-12 01:40:00,60.1,27.6,27.21,NE,45,0.0,0.0,29,0.00,,,0.00,WUHU216HW,2013-04-12 08:40:00,
2013-04-12 02:00:00,59.0,28.5,27.20,NE,45,0.0,0.0,31,0.00,,,0.00,WUHU216HW,2013-04-12 09:00:00,
2013-04-12 02:05:00,59.0,28.5,27.20,SE,135,0.0,0.0,31,0.00,,,0.00,WUHU216HW,2013-04-12 09:05:00,
2013-04-12 02:10:00,59.0,28.5,27.20,SE,135,0.0,0.0,31,0.00,,,0.00,WUHU216HW,2013-04-12 09:10:00,
2013-04-12 02:30:00,57.1,27.4,27.20,ESE,113,0.0,0.0,32,0.00,,,0.00,WUHU216HW,2013-04-12 09:30:00,
2013-04-12 02:35:00,57.1,27.4,27.20,ESE,113,0.0,0.0,32,0.00,,,0.00,WUHU216HW,2013-04-12 09:35:00,
2013-04-12 02:40:00,57.1,27.4,27.20,ESE,113,0.0,0.0,32,0.00,,,0.00,WUHU216HW,2013-04-12 09:40:00,
2013-04-12 03:00:00,56.7,27.7,27.20,ENE,68,0.0,0.0,33,0.00,,,0.00,WUHU216HW,2013-04-12 10:00:00,
2013-04-12 03:05:00,56.5,27.5,27.20,ENE,68,0.0,0.0,33,0.00,,,0.00,WUHU216HW,2013-04-12 10:05:00,
2013-04-12 03:10:00,56.5,27.5,27.20,ENE,68,0.0,0.0,33,0.00,,,0.00,WUHU216HW,2013-04-12 10:10:00,
2013-04-12 03:30:00,55.4,28.0,27.20,NW,315,0.0,0.0,35,0.00,,,0.00,WUHU216HW,2013-04-12 10:30:00,
2013-04-12 03:35:00,55.4,28.0,27.20,NW,315,0.0,0.0,35,0.00,,,0.00,WUHU216HW,2013-04-12 10:35:00,
2013-04-12 03:40:00,55.4,28.0,27.20,NW,315,0.0,0.0,35,0.00,,,0.00,WUHU216HW,2013-04-12 10:40:00,
2013-04-12 04:00:00,54.9,28.9,27.21,North,0,0.0,0.0,37,0.00,,,0.00,WUHU216HW,2013-04-12 11:00:00,
2013-04-12 04:05:00,54.9,28.9,27.21,North,0,0.0,0.0,37,0.00,,,0.00,WUHU216HW,2013-04-12 11:05:00,
2013-04-12 04:10:00,54.9,28.9,27.21,North,0,0.0,0.0,37,0.00,,,0.00,WUHU216HW,2013-04-12 11:10:00,
2013-04-12 04:30:00,54.7,28.8,27.20,SSE,158,0.0,0.0,37,0.00,,,0.00,WUHU216HW,2013-04-12 11:30:00,
2013-04-12 04:35:00,54.5,28.6,27.20,SSE,158,0.0,0.0,37,0.00,,,0.00,WUHU216HW,2013-04-12 11:35:00,
2013-04-12 04:40:00,54.5,28.6,27.20,SSE,158,0.0,0.0,37,0.00,,,0.00,WUHU216HW,2013-04-12 11:40:00,
2013-04-12 05:00:00,53.5,28.4,27.20,NE,45,0.0,0.0,38,0.00,,,0.00,WUHU216HW,2013-04-12 12:00:00,
2013-04-12 05:05:00,53.5,28.4,27.20,NE,45,0.0,0.0,38,0.00,,,0.00,WUHU216HW,2013-04-12 12:05:00,
2013-04-12 05:10:00,53.5,28.4,27.20,NE,45,0.0,0.0,38,0.00,,,0.00,WUHU216HW,2013-04-12 12:10:00,
2013-04-12 05:30:00,52.7,29.1,27.20,NE,45,0.0,0.0,40,0.00,,,0.00,WUHU216HW,2013-04-12 12:30:00,
2013-04-12 05:35:00,52.7,29.1,27.20,NE,45,0.0,0.0,40,0.00,,,0.00,WUHU216HW,2013-04-12 12:35:00,
2013-04-12 05:40:00,52.7,29.1,27.20,NE,45,0.0,0.0,40,0.00,,,0.00,WUHU216HW,2013-04-12 12:40:00,
2013-04-12 06:00:00,51.8,28.8,27.20,NE,45,0.0,0.0,41,0.00,,,0.00,WUHU216HW,2013-04-12 13:00:00,
2013-04-12 06:05:00,51.8,28.8,27.20,NE,45,0.0,0.0,41,0.00,,,0.00,WUHU216HW,2013-04-12 13:05:00,
2013-04-12 06:10:00,51.8,28.8,27.20,NE,45,0.0,0.0,41,0.00,,,0.00,WUHU216HW,2013-04-12 13:10:00,
2013-04-12 06:30:00,52.0,30.1,27.21,SE,135,0.0,0.0,43,0.00,,,0.00,WUHU216HW,2013-04-12 13:30:00,
2013-04-12 06:35:00,52.0,30.1,27.21,SE,135,0.0,0.0,43,0.00,,,0.00,WUHU216HW,2013-04-12 13:35:00,
2013-04-12 06:40:00,52.0,30.1,27.21,SE,135,0.0,0.0,43,0.00,,,0.00,WUHU216HW,2013-04-12 13:40:00,
2013-04-12 07:00:00,53.8,30.6,27.22,North,0,0.0,0.0,41,0.00,,,0.00,WUHU216HW,2013-04-12 14:00:00,
2013-04-12 07:05:00,54.0,30.8,27.22,North,0,0.0,0.0,41,0.00,,,0.00,WUHU216HW,2013-04-12 14:05:00,
2013-04-12 07:10:00,54.0,30.8,27.22,North,0,0.0,0.0,41,0.00,,,0.00,WUHU216HW,2013-04-12 14:10:00,
2013-04-12 07:30:00,56.5,32.5,27.22,NNW,338,0.2,0.2,40,0.00,,,0.00,WUHU216HW,2013-04-12 14:30:00,
2013-04-12 07:35:00,56.5,32.5,27.22,NNW,338,0.2,0.2,40,0.00,,,0.00,WUHU216HW,2013-04-12 14:35:00,
2013-04-12 07:40:00,56.5,32.5,27.22,NNW,338,0.2,0.2,40,0.00,,,0.00,WUHU216HW,2013-04-12 14:40:00,
2013-04-12 08:00:00,59.8,31.2,27.23,WNW,293,0.0,0.0,34,0.00,,,0.00,WUHU216HW,2013-04-12 15:00:00,
2013-04-12 08:05:00,59.8,31.2,27.23,WNW,293,0.0,0.0,34,0.00,,,0.00,WUHU216HW,2013-04-12 15:05:00,
2013-04-12 08:10:00,59.8,31.2,27.23,WNW,293,0.0,0.0,34,0.00,,,0.00,WUHU216HW,2013-04-12 15:10:00,
2013-04-12 08:30:00,62.8,31.7,27.24,SSW,203,0.9,0.9,31,0.00,,,0.00,WUHU216HW,2013-04-12 15:30:00,
2013-04-12 08:35:00,62.8,31.7,27.24,SW,225,1.1,1.1,31,0.00,,,0.00,WUHU216HW,2013-04-12 15:35:00,
2013-04-12 08:40:00,62.8,31.7,27.24,SW,225,1.1,1.1,31,0.00,,,0.00,WUHU216HW,2013-04-12 15:40:00,
2013-04-12 09:00:00,64.3,32.9,27.24,SW,225,0.4,0.4,31,0.00,,,0.00,WUHU216HW,2013-04-12 16:00:00,
2013-04-12 09:05:00,64.3,32.9,27.23,SW,225,0.4,0.4,31,0.00,,,0.00,WUHU216HW,2013-04-12 16:05:00,
2013-04-12 09:10:00,64.3,32.9,27.23,SW,225,0.4,0.4,31,0.00,,,0.00,WUHU216HW,2013-04-12 16:10:00,
2013-04-12 09:30:00,66.8,33.5,27.23,SW,225,0.4,0.4,29,0.00,,,0.00,WUHU216HW,2013-04-12 16:30:00,
2013-04-12 09:35:00,67.0,33.6,27.23,SSW,203,1.8,1.8,29,0.00,,,0.00,WUHU216HW,2013-04-12 16:35:00,
2013-04-12 09:40:00,67.0,33.6,27.23,SSW,203,1.8,1.8,29,0.00,,,0.00,WUHU216HW,2013-04-12 16:40:00,
2013-04-12 10:00:00,68.2,31.7,27.23,SW,225,1.8,1.8,26,0.00,,,0.00,WUHU216HW,2013-04-12 17:00:00,
2013-04-12 10:05:00,68.2,31.7,27.23,South,180,2.0,2.0,26,0.00,,,0.00,WUHU216HW,2013-04-12 17:05:00,
2013-04-12 10:30:00,69.5,32.8,27.23,WSW,248,0.4,0.4,26,0.00,,,0.00,WUHU216HW,2013-04-12 17:30:00,
2013-04-12 10:35:00,69.5,32.8,27.23,WSW,248,0.4,0.4,26,0.00,,,0.00,WUHU216HW,2013-04-12 17:35:00,
2013-04-12 11:00:00,70.7,32.8,27.23,SSE,158,1.8,1.8,25,0.00,,,0.00,WUHU216HW,2013-04-12 18:00:00,
2013-04-12 11:05:00,70.7,32.8,27.23,SE,135,1.3,1.8,25,0.00,,,0.00,WUHU216HW,2013-04-12 18:05:00,
2013-04-12 11:30:00,72.9,31.6,27.23,SSW,203,0.7,0.7,22,0.00,,,0.00,WUHU216HW,2013-04-12 18:30:00,
2013-04-12 11:59:00,74.7,27.8,27.23,WSW,248,1.1,1.1,18,0.00,,,0.00,WUHU216HW,2013-04-12 18:59:00,
2013-04-12 12:00:00,74.7,27.8,27.22,WSW,248,1.1,1.1,18,0.00,,,0.00,WUHU216HW,2013-04-12 19:00:00,
2013-04-12 12:30:00,75.6,25.2,27.22,SW,225,1.8,1.8,16,0.00,,,0.00,WUHU216HW,2013-04-12 19:30:00,
2013-04-12 12:35:00,75.6,25.2,27.22,WSW,248,1.8,1.8,16,0.00,,,0.00,WUHU216HW,2013-04-12 19:35:00,
2013-04-12 12:40:00,75.6,25.2,27.22,WSW,248,1.8,1.8,16,0.00,,,0.00,WUHU216HW,2013-04-12 19:40:00,
2013-04-12 13:00:00,75.6,23.5,27.21,WSW,248,2.0,2.0,15,0.00,,,0.00,WUHU216HW,2013-04-12 20:00:00,
2013-04-12 13:05:00,75.6,23.5,27.21,NW,315,1.3,2.0,15,0.00,,,0.00,WUHU216HW,2013-04-12 20:05:00,
2013-04-12 13:10:00,75.6,23.5,27.21,NW,315,1.3,2.0,15,0.00,,,0.00,WUHU216HW,2013-04-12 20:10:00,
2013-04-12 13:30:00,78.3,24.0,27.20,NNW,338,1.8,1.8,14,0.00,,,0.00,WUHU216HW,2013-04-12 20:30:00,
2013-04-12 13:35:00,78.3,24.0,27.20,NNW,338,1.8,1.8,14,0.00,,,0.00,WUHU216HW,2013-04-12 20:35:00,
2013-04-12 13:40:00,78.3,24.0,27.20,NNW,338,1.8,1.8,14,0.00,,,0.00,WUHU216HW,2013-04-12 20:40:00,
2013-04-12 14:00:00,78.8,22.7,27.19,WSW,248,1.3,1.3,13,0.00,,,0.00,WUHU216HW,2013-04-12 21:00:00,
2013-04-12 14:05:00,78.8,22.7,27.19,SW,225,1.8,1.8,13,0.00,,,0.00,WUHU216HW,2013-04-12 21:05:00,
2013-04-12 14:10:00,78.8,22.7,27.19,SW,225,1.8,1.8,13,0.00,,,0.00,WUHU216HW,2013-04-12 21:10:00,
2013-04-12 14:30:00,80.3,27.3,27.18,NNE,23,5.8,5.8,15,0.00,,,0.00,WUHU216HW,2013-04-12 21:30:00,
2013-04-12 14:35:00,80.3,25.6,27.18,North,0,4.7,5.8,14,0.00,,,0.00,WUHU216HW,2013-04-12 21:35:00,
2013-04-12 14:40:00,80.3,25.6,27.18,North,0,4.7,5.8,14,0.00,,,0.00,WUHU216HW,2013-04-12 21:40:00,
2013-04-12 15:00:00,81.2,24.6,27.17,North,0,2.0,2.0,13,0.00,,,0.00,WUHU216HW,2013-04-12 22:00:00,
2013-04-12 15:05:00,81.0,24.5,27.17,West,270,2.0,2.0,13,0.00,,,0.00,WUHU216HW,2013-04-12 22:05:00,
2013-04-12 15:10:00,81.0,24.5,27.17,West,270,2.0,2.0,13,0.00,,,0.00,WUHU216HW,2013-04-12 22:10:00,
2013-04-12 15:30:00,79.4,23.1,27.17,WSW,248,2.0,2.0,13,0.00,,,0.00,WUHU216HW,2013-04-12 22:30:00,
2013-04-12 15:35:00,79.4,23.1,27.17,SSW,203,2.2,2.2,13,0.00,,,0.00,WUHU216HW,2013-04-12 22:35:00,
2013-04-12 15:40:00,79.4,23.1,27.17,SSW,203,2.2,2.2,13,0.00,,,0.00,WUHU216HW,2013-04-12 22:40:00,
2013-04-12 16:00:00,78.1,23.8,27.17,NNW,338,2.5,2.5,14,0.00,,,0.00,WUHU216HW,2013-04-12 23:00:00,
2013-04-12 16:05:00,78.1,23.8,27.17,NW,315,2.5,2.5,14,0.00,,,0.00,WUHU216HW,2013-04-12 23:05:00,
2013-04-12 16:10:00,78.1,23.8,27.17,NW,315,2.5,2.5,14,0.00,,,0.00,WUHU216HW,2013-04-12 23:10:00,
2013-04-12 16:30:00,77.4,24.9,27.17,NE,45,4.7,4.7,15,0.00,,,0.00,WUHU216HW,2013-04-12 23:30:00,
2013-04-12 16:35:00,77.4,24.9,27.17,NE,45,4.7,4.7,15,0.00,,,0.00,WUHU216HW,2013-04-12 23:35:00,
2013-04-12 16:40:00,77.4,24.9,27.17,NE,45,4.7,4.7,15,0.00,,,0.00,WUHU216HW,2013-04-12 23:40:00,
2013-04-12 17:00:00,76.9,26.2,27.17,NW,315,0.9,0.9,16,0.00,,,0.00,WUHU216HW,2013-04-13 00:00:00,
2013-04-12 17:05:00,76.9,26.2,27.17,NW,315,1.1,1.1,16,0.00,,,0.00,WUHU216HW,2013-04-13 00:05:00,
2013-04-12 17:10:00,76.9,26.2,27.17,NW,315,1.1,1.1,16,0.00,,,0.00,WUHU216HW,2013-04-13 00:10:00,
2013-04-12 17:30:00,76.9,26.2,27.17,NE,45,1.1,1.1,16,0.00,,,0.00,WUHU216HW,2013-04-13 00:30:00,
2013-04-12 17:35:00,76.9,26.2,27.17,North,0,2.5,2.5,16,0.00,,,0.00,WUHU216HW,2013-04-13 00:35:00,
2013-04-12 17:40:00,76.9,26.2,27.17,North,0,2.5,2.5,16,0.00,,,0.00,WUHU216HW,2013-04-13 00:40:00,
2013-04-12 18:00:00,76.3,25.7,27.17,NW,315,0.2,0.2,16,0.00,,,0.00,WUHU216HW,2013-04-13 01:00:00,
2013-04-12 18:05:00,76.3,27.4,27.17,WSW,248,0.2,0.2,17,0.00,,,0.00,WUHU216HW,2013-04-13 01:05:00,
2013-04-12 18:10:00,76.3,27.4,27.17,WSW,248,0.2,0.2,17,0.00,,,0.00,WUHU216HW,2013-04-13 01:10:00,
2013-04-12 18:30:00,75.2,26.6,27.17,NW,315,1.3,1.3,17,0.00,,,0.00,WUHU216HW,2013-04-13 01:30:00,
2013-04-12 18:35:00,75.2,26.6,27.17,NW,315,0.4,1.3,17,0.00,,,0.00,WUHU216HW,2013-04-13 01:35:00,
2013-04-12 18:40:00,75.2,26.6,27.17,NW,315,0.4,1.3,17,0.00,,,0.00,WUHU216HW,2013-04-13 01:40:00,
2013-04-12 19:00:00,74.5,27.6,27.18,NE,45,0.0,0.0,18,0.00,,,0.00,WUHU216HW,2013-04-13 02:00:00,
2013-04-12 19:05:00,74.5,27.6,27.18,NE,45,0.0,0.0,18,0.00,,,0.00,WUHU216HW,2013-04-13 02:05:00,
2013-04-12 19:10:00,74.5,27.6,27.18,NE,45,0.0,0.0,18,0.00,,,0.00,WUHU216HW,2013-04-13 02:10:00,
2013-04-12 19:30:00,72.9,27.9,27.18,North,0,0.0,0.0,19,0.00,,,0.00,WUHU216HW,2013-04-13 02:30:00,
2013-04-12 19:35:00,72.9,27.9,27.18,North,0,0.0,0.0,19,0.00,,,0.00,WUHU216HW,2013-04-13 02:35:00,
2013-04-12 19:40:00,72.9,27.9,27.18,North,0,0.0,0.0,19,0.00,,,0.00,WUHU216HW,2013-04-13 02:40:00,
2013-04-12 20:00:00,71.3,30.3,27.19,North,0,0.0,0.0,22,0.00,,,0.00,WUHU216HW,2013-04-13 03:00:00,
2013-04-12 20:05:00,71.3,30.3,27.19,North,0,0.0,0.0,22,0.00,,,0.00,WUHU216HW,2013-04-13 03:05:00,
2013-04-12 20:10:00,71.3,30.3,27.19,North,0,0.0,0.0,22,0.00,,,0.00,WUHU216HW,2013-04-13 03:10:00,
2013-04-12 20:30:00,69.3,29.6,27.21,ESE,113,0.0,0.0,23,0.00,,,0.00,WUHU216HW,2013-04-13 03:30:00,
2013-04-12 20:35:00,69.3,29.6,27.21,ESE,113,0.0,0.0,23,0.00,,,0.00,WUHU216HW,2013-04-13 03:35:00,
2013-04-12 20:40:00,69.3,29.6,27.21,ESE,113,0.0,0.0,23,0.00,,,0.00,WUHU216HW,2013-04-13 03:40:00,
2013-04-12 21:00:00,68.0,29.5,27.22,NE,45,0.0,0.0,24,0.00,,,0.00,WUHU216HW,2013-04-13 04:00:00,
2013-04-12 21:01:00,68.0,29.5,27.22,NE,45,0.0,0.0,24,0.00,,,0.00,WUHU216HW,2013-04-13 04:01:00,
2013-04-12 21:06:00,68.0,29.5,27.22,NE,45,0.0,0.0,24,0.00,,,0.00,WUHU216HW,2013-04-13 04:06:00,
2013-04-12 21:30:00,66.6,28.3,27.24,South,180,0.2,0.2,24,0.00,,,0.00,WUHU216HW,2013-04-13 04:30:00,
2013-04-12 21:35:00,66.6,28.3,27.24,SSW,203,0.4,0.4,24,0.00,,,0.00,WUHU216HW,2013-04-13 04:35:00,
2013-04-12 21:40:00,66.6,28.3,27.24,SSW,203,0.4,0.4,24,0.00,,,0.00,WUHU216HW,2013-04-13 04:40:00,
2013-04-12 22:30:00,64.1,30.1,27.25,SSW,203,0.0,0.0,28,0.00,,,0.00,WUHU216HW,2013-04-13 05:30:00,
2013-04-12 22:35:00,64.1,30.1,27.25,SW,225,0.0,0.0,28,0.00,,,0.00,WUHU216HW,2013-04-13 05:35:00,
2013-04-12 22:40:00,64.1,30.1,27.25,SW,225,0.0,0.0,28,0.00,,,0.00,WUHU216HW,2013-04-13 05:40:00,
2013-04-12 23:00:00,63.0,29.2,27.25,NNW,338,0.0,0.0,28,0.00,,,0.00,WUHU216HW,2013-04-13 06:00:00,
2013-04-12 23:05:00,63.0,29.2,27.25,NNW,338,0.0,0.0,28,0.00,,,0.00,WUHU216HW,2013-04-13 06:05:00,
2013-04-12 23:10:00,63.0,29.2,27.25,NNW,338,0.0,0.0,28,0.00,,,0.00,WUHU216HW,2013-04-13 06:10:00,
2013-04-12 23:30:00,61.9,29.2,27.25,ESE,113,0.0,0.0,29,0.00,,,0.00,WUHU216HW,2013-04-13 06:30:00,
2013-04-12 23:35:00,61.9,29.2,27.25,ESE,113,0.0,0.0,29,0.00,,,0.00,WUHU216HW,2013-04-13 06:35:00,